Tracking 19219 objects as of 20-Jul-2018
HD Live streaming from Space Station
objects crossing your sky now

CZ-4B DEB

Track CZ-4B DEB now!
10-day predictions


NORAD ID: 29215
Int'l Code: 2002-024F
Perigee: 852.7 km
Apogee: 1,217.2 km
Inclination: 98.8 °
Period: 105.7 minutes
Semi major axis: 7405 km
RCS: 0.0014 m2 (small)
Launch date: May 15, 2002
Source: People's Republic of China (PRC)
Launch site: Taiyaun Space Center, China (TSC)

Note: This is SATELLITE DEBRIS
aabbcc
Your satellite tracking list
Your tracking list is empty




NASA's NSSDC Master Catalog

Two Line Element Set (TLE):
1 29215U 02024F   18200.58312826 +.00000007 +00000-0 +50099-4 0  9997
2 29215 098.8183 103.2340 0246106 249.3109 231.8233 13.62172072786765
Source of the keplerian elements: AFSPC